Location: Czekanka
(50.4925°N, 19.2643°E)
Time: 02:05:17
(UTC+00:00)

CZ-2C R/B - Pass Details

Date: 25 September 2024
Orbit: 703 x 903 km, 98.2° (Epoch: 09 October)

Event Time Altitude Azimuth Distance (km) Brightness Sun altitude
Rises 01:33:15 0° 9° (N) 3,540 7.1 -27.8°
Reaches altitude 10° 01:35:48 10° 3° (N) 2,596 6.2 -27.4°
Enters shadow 01:40:40 41° 309° (NW) 1,290 4.0 -26.8°
